sat.trackr.live / text

‹ back to catalog

STARLINK-35547

NORAD 66119 · 2025-237F

PAYLOAD ACTIVE UNKNOWN

§ Identity

Operator
Country
US
Launch date
2025-10-22
Launch site
AFWTR
Launch vehicle
Mass (kg)
RCS (m²)

Purposes: comms

External: N2YO · Heavens-Above · Gunter

§ Orbital elements

Epoch: 2026-05-24T23:43:56.587296Z

Period
94.10 min
Inclination
53.1597°
Eccentricity
0.0001065
Mean motion
15.30207066 rev/d
Perigee alt
474.5 km
Apogee alt
475.9 km
Semi-major
6,853.3 km
B*
5.9725e-4
RAAN
45.1236°
Arg perigee
79.4920°
Mean anomaly
280.6200°
Rev number
3,429

§ Raw data

STARLINK-355471 66119U 25237F   26144.98884939  .00017375  00000+0  59725-3 0  99902 66119  53.1597  45.1236 0001065  79.4920 280.6200 15.30207066 34295

JSON: /api/v1/satellites/66119 · /tle

For live sub-satellite position, see the globe view (requires WebGL).

§ Visibility from observer

Set your observer location to see the next 7 days of passes ≥ 10°. The values pass through the URL so the page stays shareable.

No JS? Fill the form by hand. The geolocation button needs JavaScript.